Printer-friendly version

IAU Minor Planet Center

Minor Planet Center

MPEC 2006-W40 : 2006 WW1

The following Minor Planet Electronic Circular may be linked-to from your own Web pages, but must not otherwise be redistributed electronically.


Read MPEC 2006-W39 Read MPEC 2006-W41


M.P.E.C. 2006-W40                                Issued 2006 Nov. 20, 20:33 UT

     The Minor Planet Electronic Circulars contain information on unusual
         minor planets and routine data on comets.  They are published
   on behalf of Commission 20 of the International Astronomical Union by the
          Minor Planet Center, Smithsonian Astrophysical Observatory,
                          Cambridge, MA 02138, U.S.A.

             Prepared using the Tamkin Foundation Computer Network

                              MPC@CFA.HARVARD.EDU
          URL http://cfa-www.harvard.edu/iau/mpc.html  ISSN 1523-6714

                                   2006 WW1

Observations:
     K06W01W  C2006 11 11.43390 05 36 48.67 +21 52 15.3          20.2 V EW040G96
     K06W01W  C2006 11 11.43865 05 36 48.45 +21 52 13.1          19.9 V EW040G96
     K06W01W  C2006 11 11.44329 05 36 48.13 +21 52 10.6          20.1 V EW040G96
     K06W01W  C2006 11 11.44799 05 36 47.95 +21 52 08.1          19.7 V EW040G96
     K06W01W* C2006 11 19.33696 05 28 24.53 +20 32 50.0          20.4 V EW040691
     K06W01W  C2006 11 19.35434 05 28 23.05 +20 32 38.2          20.7 V EW040691
     K06W01W  C2006 11 19.37167 05 28 21.58 +20 32 26.3          20.8 V EW040691
     K06W01W  C2006 11 20.30845 05 27 04.19 +20 21 38.6          20.5 V EW040G96
     K06W01W  C2006 11 20.33446 05 27 01.80 +20 21 19.7          20.7 R EW040854
     K06W01W  C2006 11 20.34213 05 27 01.10 +20 21 15.5          20.4 R EW040854
     K06W01W  C2006 11 20.34980 05 27 00.45 +20 21 09.5          20.4 R EW040854
     K06W01W  C2006 11 20.45552 05 26 50.96 +20 19 55.0          19.9 V EW040G96
     K06W01W  C2006 11 20.45641 05 26 50.89 +20 19 54.4          19.8 V EW040G96

Observer details:
691 Steward Observatory, Kitt Peak.  Observer J. V. Scotti.  0.9-m f/3
    reflector + CCD.
854 Sabino Canyon Observatory, Tucson.  Observer J. E. McGaha.  0.36-m f/10.0
    Schmidt-Cassegrain + CCD.
G96 Mt. Lemmon Survey.  Observers E. J. Christensen, A. R. Gibbs.  Measurers
    E. C. Beshore, E. J. Christensen, G. J. Garradd, A. R. Gibbs, A. D. Grauer,
    R. E. Hill, R. A. Kowalski, S. M. Larson, R. H. McNaught.  1.5-m reflector
    + CCD.

Orbital elements:
2006 WW1                                                 Earth MOID = 0.1183 AU
Epoch 2006 Sept. 22.0 TT = JDT 2454000.5                MPC
M 244.58637              (2000.0)            P               Q
n   0.58340027     Peri.  322.38699     -0.91412304     +0.37975379
a   1.4184857      Node   240.50482     -0.32097849     -0.89183674
e   0.5050963      Incl.    9.38993     -0.24769311     -0.24579318
P   1.69           H   19.0           G   0.15           U   8
Residuals in seconds of arc
061111 G96  0.1+  0.3-    061119 691  0.0   0.0     061120 854  0.1-  0.2-
061111 G96  0.4+  0.1+    061119 691  0.2+  0.1-    061120 G96  0.3+  0.2+
061111 G96  0.7-  0.1+    061120 G96  0.4+  0.2+    061120 G96  0.4+  0.2+
061111 G96  0.2+  0.1+    061120 854  0.5-  0.7-
061119 691  0.1-  0.1+    061120 854  0.6-  0.4+

Ephemeris:
2006 WW1                 a,e,i = 1.42, 0.51, 9                   q = 0.7020
Date    TT    R. A. (2000) Decl.     Delta      r     Elong.  Phase     V
2006 11 21    05 26.07   +20 13.5    0.686    1.639   156.2    14.1    20.1
2006 12 01    05 07.82   +17 54.9    0.597    1.577   169.7     6.4    19.4
2006 12 11    04 43.31   +14 56.8    0.532    1.511   169.7     6.7    19.0
2006 12 21    04 15.55   +11 30.2    0.493    1.441   153.5    17.7    19.2
2006 12 31    03 49.14   +08 02.8    0.475    1.368   136.5    29.7    19.4
2007 01 10    03 27.91   +05 02.3    0.473    1.291   120.7    40.9    19.5
2007 01 20    03 13.37   +02 41.2    0.477    1.210   106.6    51.2    19.7
2007 01 30    03 05.13   +00 55.4    0.479    1.127    94.3    60.6    19.8
2007 02 09    03 01.38   -00 29.2    0.473    1.043    83.3    70.0    19.9
2007 02 19    02 59.59   -01 49.1    0.454    0.959    72.9    80.2    20.0
2007 03 01    02 56.09   -03 22.5    0.422    0.879    62.4    92.5    20.1

Kyle E. Smalley              (C) Copyright 2006 MPC           M.P.E.C. 2006-W40

Read MPEC 2006-W39 Read MPEC 2006-W41


Our Web policy. Index to the CBAT/MPC/ICQ pages.


Valid HTML 4.01!